Find Local Weather

World > North America > United States > New York

New York, New York Regional Weather

Lat: 40.71N, Lon: 74.01W
Wx Zone: NYZ072
Feedback
Expires:201808220000;;429259
ASUS41 KPHI 212313
RWRPHI

REGIONAL WEATHER ROUNDUP
NATIONAL WEATHER SERVICE MOUNT HOLLY NJ
700 PM EDT TUE AUG 21 2018

NOTE:  "FAIR" INDICATES FEW OR NO CLOUDS BELOW 12,000 FEET WITH NO
SIGNIFICANT WEATHER AND/OR OBSTRUCTIONS TO VISIBILITY.

 * = STATION DOES NOT REPORT PRECIPITATION (E.G. RAIN, SNOW, ETC.) 
        OR FOG.


PAZ001-021-NYZ056-072-MDZ011-DCZ001-220000-
OTHER NEARBY LOCATIONS
  
CITY           SKY/WX    TMP DP  RH WIND       PRES   REMARKS
HARRISBURG     LGT RAIN  74  73  97 E6        29.88S FOG              
STATE COLLEGE  PTSUNNY   72  68  88 E3        29.85S                  
WILLIAMSPORT   LGT RAIN  74  69  85 E8G21     29.84F                  
BINGHAMTON     CLOUDY    67  64  90 S12       29.90F                  
NEW YORK CITY  MOCLDY    73  66  78 CALM      29.99F                  
BALTIMORE      CLOUDY    78  75  90 SE8       29.86F                  
WASHINGTON DC  LGT RAIN  81  75  82 SE8       29.86S                  

$$
  

SKY/WX - Weather  TMP - Temperature  DP - Dewpoint  RH - Relative Humidity
WIND - Wind Direction/Speed PRES - Barometric Pressure